Location: ??
(35.5052°N, 139.7262°E)
Time: 01:41:15
(UTC+00:00)

OAO 1 - Pass Details

Date: 28 October 2021
Orbit: 773 x 784 km, 35.0° (Epoch: 01 December)

Event Time Altitude Azimuth Distance (km) Brightness Sun altitude
Rises 09:13:50 0° 273° (W) 3,246 9.5 -17.5°
Reaches altitude 10° 09:16:18 10° 273° (W) 2,320 8.3 -18.0°
Maximum altitude 09:21:48 84° 186° (S) 785 4.5 -19.1°
Enters shadow 09:24:01 37° 101° (E) 1,185 5.0 -19.6°
